This is the latest recevied weather packets stored in our database for station/object KD0JCP-10. If no packets are shown the sender has not sent any weather packets the latest 10 day(s).
| Time | Temp. | Humidity | Pressure | Rain* | Wind** | Luminosity | Snow |
|---|---|---|---|---|---|---|---|
| 1777761981 | 21.11° C | 23% | 1017.1 hPa | 0 mm | - | - | - |
| 1777761681 | 21.11° C | 25% | 1017.2 hPa | 0 mm | - | - | - |
| 1777761381 | 21.11° C | 23% | 1017.3 hPa | 0 mm | - | - | - |
| 1777761081 | 21.11° C | 24% | 1017.4 hPa | 0 mm | - | - | - |
| 1777760781 | 20.56° C | 25% | 1017.5 hPa | 0 mm | - | - | - |
| 1777760481 | 20.56° C | 22% | 1017.6 hPa | 0 mm | - | - | - |
| 1777760181 | 20.56° C | 24% | 1017.6 hPa | 0 mm | - | - | - |
| 1777759881 | 20.56° C | 23% | 1017.8 hPa | 0 mm | - | - | - |
| 1777759581 | 20.56° C | 23% | 1017.9 hPa | 0 mm | - | - | - |
| 1777759281 | 20.56° C | 22% | 1017.9 hPa | 0 mm | - | - | - |
| 1777758981 | 20.56° C | 24% | 1018.1 hPa | 0 mm | - | - | - |
| 1777757781 | 20° C | 26% | 1018.3 hPa | 0 mm | - | - | - |
| 1777757481 | 20° C | 23% | 1018.4 hPa | 0 mm | - | - | - |
| 1777757181 | 20° C | 22% | 1018.5 hPa | 0 mm | - | - | - |
| 1777756882 | 20° C | 23% | 1018.7 hPa | 0 mm | - | - | - |
| 1777756581 | 20° C | 21% | 1018.7 hPa | 0 mm | - | - | - |
| 1777755981 | 19.44° C | 22% | 1019.1 hPa | 0 mm | - | - | - |
| 1777753881 | 19.44° C | 23% | 1019.8 hPa | 0 mm | - | - | - |
| 1777753581 | 19.44° C | 25% | 1019.7 hPa | 0 mm | - | - | - |
| 1777752981 | 18.89° C | 23% | 1020.1 hPa | 0 mm | - | - | - |
| 1777752681 | 18.89° C | 22% | 1020 hPa | 0 mm | - | - | - |
| 1777752381 | 18.89° C | 24% | 1020.1 hPa | 0 mm | - | - | - |
| 1777751781 | 18.89° C | 24% | 1020.2 hPa | 0 mm | - | - | - |
| 1777751481 | 18.89° C | 22% | 1020.4 hPa | 0 mm | - | - | - |
| 1777751181 | 18.89° C | 23% | 1020.3 hPa | 0 mm | - | - | - |
* Rain latest hour (hover to see other rain measurements)
** Current wind speed in m/s (hover to see current wind gust speed)